sat.trackr.live / text

‹ back to catalog

STARLINK-4044

NORAD 52662 · 2022-053G

PAYLOAD ACTIVE UNKNOWN

§ Identity

Operator
Country
US
Launch date
2022-05-18
Launch site
AFETR
Launch vehicle
Mass (kg)
RCS (m²)

Purposes: comms

External: N2YO · Heavens-Above · Gunter

§ Orbital elements

Epoch: 2026-09-19T22:27:57.057120Z

Period
93.79 min
Inclination
53.1610°
Eccentricity
0.0001151
Mean motion
15.35399319 rev/d
Perigee alt
458.9 km
Apogee alt
460.5 km
Semi-major
6,837.9 km
B*
-6.6830e-5
RAAN
358.4170°
Arg perigee
111.6769°
Mean anomaly
248.4357°
Rev number
24,041

§ Raw data

STARLINK-40441 52662U 22053G   26262.93607705 -.00002711  00000+0 -66830-4 0  99972 52662  53.1610 358.4170 0001151 111.6769 248.4357 15.35399319240418

JSON: /api/v1/satellites/52662 · /tle

For live sub-satellite position, see the globe view (requires WebGL).

§ Visibility from observer

Set your observer location to see the next 7 days of passes ≥ 10°. The values pass through the URL so the page stays shareable.

No JS? Fill the form by hand. The geolocation button needs JavaScript.